STARLINK-32191 (60314 NORAD) Tracking and Keplerian Element Data

This shows tracking and keplerian element data for the satellite.

Feedback or suggestion? Click here.




ElementValue
Catalog60314
NameSTARLINK-32191
Epoch Orbit1302
Epoch Day286.81920005
Epoch Year2024
RAAN165.9668
Inclination53.1578
Eccentricity3.08E-05
Argument of Perigee135.8256
Mean Anonmoly224.2773
Mean Motion15.39630025
Decay Rate-0.00232739
L11 60314U 24133P 24286.81920005 -.00232739 00000+0 -59862-2 0 9993
L22 60314 53.1578 165.9668 0000308 135.8256 224.2773 15.39630025 13024



Live tracking and technical data element details for STARLINK-32191 (NORAD 60314). STARLINK-32191 can be tracked NOW for your location showing map with azimuth and elevation plus other details from your city location.







IsCatalogInMostPopularTable: catalog: 60314, numindb: 7
Update: records affected: 1



GetName: 60314 STARLINK-32191

Hit Count: updated at: Tue, 03 Dec 2024 02:36:57 GMT